www.pogodaiklimat.ru

Погода и климат >> Архив погоды >> Россия >> Пензенская область >> Пенза


АРХИВ ПОГОДЫ в Пензе

Время (UTC), дата Ветер
(напр.,м/с)
 
Видим.   Явления Облачность Т
(С)
Тd
(С)
f
(%)
Тe
(С)
Тes
(С)
Комфортность P
(гПа)
Po
(гПа)
Тmin
(С)
Tmax
(С)
R
(мм)
R24
(мм)
S
(см)
09 8.11 С 2 4000 м дымка 10/10 240 м
[St]
+0.5 -0.5 93 -3 -3 по сезону 1023.8 1002.1
12 8.11 С 2 10 км 10/10 330 м
[St]
+1.1 -0.1 92 -2 -2 по сезону 1023.7 1002.0
15 8.11 В 1 10 км 10/10 600 м
[Sc]
+1.2 +0.3 94 -1 -1 по сезону 1023.9 1002.2 +1.2
18 8.11 штиль 0 10 км 10/0
[Ac As]
+0.8 -0.2 93 -1 -1 по сезону 1024.1 1002.4
21 8.11 В 1 10 км 10/0
[Ac As]
+0.9 +0.2 95 -1 -1 по сезону 1024.4 1002.7
00 9.11 СВ 1 10 км 8/0
[Ac trans]
+1.1 +0.4 95 -1 -1 по сезону 1024.5 1002.8
03 9.11 В 1 10 км 8/0
[Ac As]
+1.0 +0.2 94 -1 -1 по сезону 1024.7 1003.0 +0.7
06 9.11 В 1 4000 м слабая морось 10/10 270 м
[St]
+1.1 +0.1 93 -1 -1 по сезону 1025.5 1003.8
09 9.11 В 1 4000 м в посл. час дождь {морось} 10/10 240 м
[Frnb]
+2.1 +1.0 92 0 0 по сезону 1025.9 1004.2
12 9.11 Ю 1 4000 м слабая морось {дождь} 10/10 270 м
[St]
+2.4 +1.2 92 +1 +1 по сезону 1025.8 1004.2
15 9.11 В 1 4000 м дымка {морось} 9/9 480 м
[Sc]
+2.4 +1.4 93 +1 +1 по сезону 1026.0 1004.4 +2.7 0.0
18 9.11 Ю 3 4000 м дымка {морось} 8/8 570 м
[Sc]
+1.9 +0.7 92 -3 -3 по сезону 1026.0 1004.4
21 9.11 Ю 2 4000 м дымка 10/10 500 м
[Sc]
+1.4 +0.6 94 -2 -2 по сезону 1026.5 1004.8
00 10.11 Ю 2 4000 м в посл. час дождь 10/10 400 м
[St]
+1.4 +0.6 94 -2 -2 по сезону 1026.8 1005.1
03 10.11 ЮВ 1 4000 м дымка 10/10 900 м
[Sc]
+1.2 +0.6 96 -1 -1 по сезону 1027.2 1005.5 +1.1 0.0
06 10.11 ЮВ 3 4000 м слабый дождь 10/10 270 м
[Frnb]
+0.7 -0.2 94 -4 -4 по сезону 1028.7 1006.9 +0.7
09 10.11 ЮВ 4 10 км в посл. час снег {дождь} 10/10 1000 м
[Frnb]
+0.4 -2.4 81 -5 -5 по сезону 1030.3 1008.4
12 10.11 В 2 10 км {снег, дождь} 10/10 630 м
[Sc]
-0.1 -3.9 76 -4 -4 по сезону 1031.7 1009.8
15 10.11 В 2 10 км 4/3 600 м
[Sc As trans]
-1.9 -8.0 63 -5 -5 по сезону 1034.0 1011.8 +1.2 0.0
18 10.11 В 3 10 км 9/9 1110 м
[Sc]
-3.1 -8.3 67 -8 -8 прохладно 1036.1 1013.8
21 10.11 ЮВ 3 10 км ясно -5.3 -11.5 62 -10 -10 прохладно 1039.4 1016.8
00 11.11 ЮВ 3 10 км ясно -6.8 -12.3 65 -12 -12 холодно 1041.6 1018.9
03 11.11 В 3 10 км ясно -8.3 -11.9 75 -14 -14 очень
холодно
1043.9 1021.0 -8.3
06 11.11 В 3 10 км ясно -8.1 -12.3 72 -14 -13 очень
холодно
1046.3 1023.4 -9.1
09 11.11 ЮВ 4 10 км ясно -4.7 -12.3 55 -11 -9 холодно 1047.3 1024.6
12 11.11 ЮВ 4
{10}
10 км ясно -3.6 -13.8 45 -9 -9 холодно 1048.1 1025.5
15 11.11 В 2 10 км ясно -6.0 -14.0 53 -10 -10 холодно 1049.7 1026.8 -3.5
18 11.11 ЮВ 3 10 км ясно -7.1 -13.5 60 -12 -12 холодно 1050.9 1028.0
21 11.11 В 2 10 км ясно -8.5 -13.4 68 -13 -13 очень
холодно
1052.2 1029.1
00 12.11 В 2 10 км ясно -9.7 -13.5 74 -14 -14 очень
холодно
1052.5 1029.3
03 12.11 В 2 10 км ясно -10.6 -13.5 79 -15 -15 очень
холодно
1052.6 1029.3 -10.6
06 12.11 В 2 10 км ясно -9.8 -12.8 79 -14 -14 очень
холодно
1053.5 1030.3 -11.1
09 12.11 Ю 3 10 км ясно -5.5 -13.2 55 -11 -9 холодно 1053.0 1030.1
12 12.11 ЮВ 2 10 км ясно -3.6 -14.3 43 -7 -7 прохладно 1051.6 1028.9
15 12.11 ЮВ 1 10 км ясно -5.8 -13.4 55 -8 -8 прохладно 1051.5 1028.6 -3.5
18 12.11 ЮВ 1 10 км ясно -8.1 -13.7 64 -10 -10 прохладно 1051.3 1028.3
21 12.11 В 1 10 км ясно -9.5 -13.1 75 -12 -12 холодно 1051.4 1028.2
00 13.11 штиль 0 10 км ясно -12.1 -14.2 84 -12 -12 холодно 1051.1 1027.7
03 13.11 штиль 0 10 км ясно -13.4 -14.9 88 -13 -13 холодно 1050.8 1027.3 -13.5
06 13.11 штиль 0 10 км ясно -9.0 -11.6 81 -9 -9 прохладно 1050.5 1027.4
09 13.11 ЮВ 2 10 км ясно -4.5 -11.7 57 -8 -6 прохладно 1049.3 1026.6
12 13.11 ЮВ 2 10 км ясно -2.9 -14.6 40 -6 -6 по сезону 1047.4 1024.9
15 13.11 Ю 1 10 км ясно -6.3 -14.3 53 -8 -8 прохладно 1046.4 1023.6 -2.8
18 13.11 ЮЗ 2 10 км ясно -7.1 -14.5 55 -11 -11 холодно 1045.4 1022.6
21 13.11 Ю 2 10 км ясно -8.3 -13.6 66 -13 -13 холодно 1044.8 1021.8
00 14.11 штиль 0 10 км ясно -10.5 -13.5 79 -11 -11 прохладно 1043.7 1020.7
03 14.11 Ю 1 10 км ясно -11.5 -13.7 84 -14 -14 холодно 1042.6 1019.5 -12.1
06 14.11 Ю 2 10 км ясно -8.0 -12.3 71 -12 -12 холодно 1041.3 1018.5
09 14.11 ЮЗ 3 10 км ясно -2.3 -13.2 43 -7 -5 по сезону 1039.7 1017.4
12 14.11 ЮЗ 2 10 км ясно -0.2 -13.7 35 -3 -2 по сезону 1038.5 1016.4
15 14.11 Ю 1 10 км ясно -4.3 -11.6 57 -6 -6 по сезону 1038.6 1016.1 -0.2
18 14.11 Ю 2 10 км ясно -5.9 -12.0 62 -10 -10 прохладно 1038.8 1016.2
21 14.11 ЮВ 2 10 км ясно -7.8 -12.0 72 -12 -12 холодно 1039.6 1016.8
00 15.11 ЮВ 2 10 км ясно -8.3 -12.5 72 -13 -13 холодно 1039.4 1016.6
03 15.11 ЮВ 2 10 км ясно -9.9 -11.3 89 -14 -14 холодно 1040.5 1017.5 -10.3

 

Местоположение метеостанции Пенза (Пензенская область, Россия): широта 53.12 долгота 45.02 высота над уровнем моря 172 м.

В архиве по умолчанию представлена погода в Пензе за последнюю неделю. Архивные данные за месяц целиком и за предыдущие месяцы, начиная с января 2011 года, Вы можете получить, выбрав интересующий диапазон дат из раскрывающегося списка и нажав кнопку "Ввод!".


*Определитесь, кто Вы:
робот инопланетянин человек

Внимание! Время в таблицах - всемирное. Для получения местного времени необходимо прибавить поправку, которая в Пензе равна 3 ч.

Смотрите также архив погоды в соседних городах и на ближайших метеорологических станциях:

Погода в Кондоле (Пензенская область, Россия) (34 км)
Погода в Городище (Пензенская область, Россия) (47 км)
Погода в Колышлее (Пензенская область, Россия) (54 км)
Погода в Каменке (Пензенская область, Россия) (66 км)
Погода в Инсаре (Мордовия, Россия) (94 км)
Погода в Радищево (Пензенская область, Россия) (95 км)
Погода в Петровске (Саратовская область, Россия) (97 км)
Погода в Белинском (Пензенская область, Россия) (110 км)
Погода в Саранске (Мордовия, Россия) (113 км)
Погода в Пачелме (Пензенская область, Россия) (116 км)

Пояснения к столбцам:

Ветер - указаны скорость ветра в м/с - средняя за 10 мин, порывы в срок и между сроками (в фигурных скобках) и направление, откуда дует ветер: С - северный, СВ - северо-восточный, В - восточный, ЮВ - юго-восточный, Ю - южный, ЮЗ - юго-западный, З - западный, СЗ - северо-западный.
Видимость - горизонтальная дальность видимости в метрах или километрах. При видимости от 1 до 10 км при отсутствии осадков обычно наблюдается дымка, при ухудшении видимости до 1 км и менее - туман. В сухую погоду видимость может ухудшаться дымом, пылью или мглою.
Явления - указаны атмосферные явления, наблюдавшиеся в срок или в последний час перед сроком; фигурными скобками обозначены явления, наблюдавшиеся между сроками (за 1-3 часа до срока); квадратными скобками обозначены град или гололедные отложения с указанием их диаметра в мм.
Облачность - указаны через наклонную черту общая и нижняя облачность в баллах и высота нижней границы облаков в метрах; квадратными скобками обозначены формы облаков: Ci - перистые, Cs - перисто-слоистые, Cc - перисто-кучевые, Ac - высококучевые, As - высокослоистые, Sc - слоисто-кучевые, Ns - слоисто-дождевые, Cu - кучевые, Cb - кучево-дождевые. Подробнее классификацию облаков см. в Атласе облаков (PDF).
T - Температура воздуха - температура, измеренная на высоте 2 м над землей.
Td - Температура точки росы - температура, при понижении до которой содержащийся в воздухе водяной пар достигнет насыщения.
f - Относительная влажность воздуха - влажноcть воздуха, измеренная на высоте 2 м над землей.
Te - Эффективная температура - температура, которую ощущает одетый по сезону человек в тени. Характеристика душности погоды. При расчете учитывается влияние влажности воздуха и скорости ветра на теплоощущения человека.
Tes - Эффективная температура на солнце - температура, которую ощущает человек, с поправкой на солнечный нагрев. Характеристика знойности погоды. Зависит от высоты солнца над горизонтом, облачности и скорости ветра. Ночью, в пасмурную погоду, а также при ветре 12 м/с и более поправка равна нулю.
P - Атмосферное давление - приведенное к уровню моря атмосферное давление.
Po - Атмосферное давление - измеренное на уровне метеостанции атмосферное давление.
Tmin - Минимальная температура - минимум температуры воздуха на высоте 2 м над землей.
Tmax - Максимальная температура - максимум температуры воздуха на высоте 2 м над землей.
R - Количество осадков - Количество выпавших осадков за период времени, мм. При наведении курсора мыши на число - период времени, за который выпало указанное количество осадков.
R24 - Количество осадков - Количество выпавших осадков за 24 часа, мм.
S - Снежный покров - Высота снежного покрова, см. При наведении курсора мыши на число - состояние снежного покрова и степень покрытия местности в баллах.